[[{"header":{"parameterUnit":"m.s-1","parameterCategory":1,"la1":30.2991,"la2":30.254,"lo1":-89.0895,"lo2":-89.0444,"dy":0.0017,"dx":0.0017,"nx":28,"ny":28,"refTime":"2023-04-02T21:00:00:Z","depth":0,"parameterNumber":2,"parameterNumberName":"U-component_of_WINDS"},"data":[0,0,0,0,0,0,0,0,0,0,0,0,0,0,0,0,0,0,0,0,0,0,0,0,0,0,0,0,0,0,0,0,0,0,0,0,0,0,0,0,0,0,0,0,0,0,0,0,0,0,0,0,0,0,0,0,0,0,-3.0339,-3.0339,0,-3.0408,-3.0409,-3.041,-3.0435,-3.0435,-3.0435,-3.0434,-3.0504,-3.0506,-3.0508,0,0,0,0,0,0,0,0,0,0,0,0,0,-3.0226,-3.0228,-3.0338,-3.0339,-3.034,-3.0408,-3.0409,-3.041,-3.0435,-3.0435,-3.0435,-3.0434,-3.0504,-3.0506,-3.0509,0,0,0,0,0,0,0,0,0,0,0,0,0,-3.0283,-3.0228,-3.0338,-3.0361,-3.0364,-3.0408,-3.0409,-3.041,-3.0435,-3.0435,-3.0434,-3.0434,-3.0503,-3.0506,-3.0509,-3.0536,0,0,-3.0519,-3.052,0,0,0,0,0,0,0,0,-3.028,-3.0287,-3.0357,-3.0359,-3.0363,-3.0413,-3.0395,-3.0452,-3.0435,-3.0408,-3.0434,-3.0434,-3.0474,-3.0479,-3.0493,-3.0539,-3.0542,-3.0519,-3.0521,-3.0522,-3.0523,0,0,0,0,0,0,0,-3.0276,-3.0284,-3.0366,-3.0358,-3.0361,-3.0367,-3.0375,-3.0406,-3.0442,-3.041,-3.0412,-3.042,-3.0476,-3.049,-3.0495,-3.0543,-3.0519,-3.0522,-3.0523,-3.0525,-3.0614,-3.0614,0,0,0,0,0,0,-3.0268,-3.0281,-3.0364,-3.0368,-3.0319,-3.037,-3.0378,-3.0397,-3.0442,-3.0448,-3.0421,-3.0421,-3.0485,-3.0491,-3.0498,-3.0532,-3.0522,-3.0525,-3.0527,-3.0613,-3.0614,-3.0615,0,0,0,0,0,0,-3.0265,-3.0275,-3.0361,-3.0325,-3.0336,-3.0372,-3.0393,-3.0398,-3.0413,-3.045,-3.0456,-3.0429,-3.0485,-3.0493,-3.0526,-3.0535,-3.0526,-3.0529,-3.0613,-3.0614,-3.0614,-3.06,0,0,0,0,0,0,-3.0262,-3.0274,-3.0285,-3.0325,-3.0338,-3.0388,-3.0393,-3.04,-3.0419,-3.042,-3.0459,-3.0465,-3.0485,-3.0521,-3.0529,-3.0539,-3.0532,-3.0612,-3.0613,-3.0614,-3.06,-3.06,-3.06,0,0,0,0,0,-3.0258,-3.0278,-3.0285,-3.0295,-3.0352,-3.0389,-3.0396,-3.042,-3.0419,-3.043,-3.0454,-3.0464,-3.0533,-3.0524,-3.0534,-3.0544,-3.0612,-3.0613,-3.0614,-3.06,-3.06,-3.06,0,0,0,0,0,0,-3.0237,-3.0283,-3.0292,-3.0326,-3.0353,-3.0393,-3.0407,-3.0419,-3.0447,-3.0447,-3.0474,-3.0483,-3.0513,-3.0532,-3.0522,-3.0572,-3.0573,-3.0576,-3.0559,-3.056,-3.056,-3.0554,-3.0534,0,0,0,0,0,-3.0236,-3.0262,-3.0301,-3.0327,-3.034,-3.0372,-3.0388,-3.0404,-3.0433,-3.0445,-3.0471,-3.0499,-3.0527,-3.0544,-3.0572,-3.0603,-3.0612,-3.0615,-3.0615,-3.0615,-3.0617,-3.0635,-3.0637,-3.0618,-3.0618,-3.0618,0,0,-3.0235,-3.0263,-3.0278,-3.0323,-3.0347,-3.0373,-3.0381,-3.0408,-3.0428,-3.0449,-3.0482,-3.0502,-3.0535,-3.0567,-3.0582,-3.0583,-3.0625,-3.0617,-3.0616,-3.0618,-3.0636,-3.0638,-3.064,-3.0619,-3.0619,-3.0619,0,0,-3.0245,-3.027,-3.0294,-3.0317,-3.0352,-3.0373,-3.0379,-3.0417,-3.0432,-3.0465,-3.0481,-3.0505,-3.0552,-3.0575,-3.0593,-3.0613,-3.0624,-3.0621,-3.0622,-3.064,-3.0641,-3.0643,-3.0649,-3.0652,-3.0623,-3.0623,-3.0623,0,-3.0239,-3.0279,-3.0305,-3.0331,-3.0351,-3.0372,-3.0396,-3.0417,-3.0459,-3.0472,-3.0473,-3.0533,-3.0557,-3.0595,-3.06,-3.0614,-3.0621,-3.0617,-3.0639,-3.0641,-3.0642,-3.0649,-3.0652,-3.0623,-3.0623,-3.0623,-3.0623,0,-3.027,-3.0297,-3.0313,-3.0353,-3.0375,-3.04,-3.0429,-3.0447,-3.0461,-3.0481,-3.0515,-3.0545,-3.0578,-3.0589,-3.0602,-3.0629,-3.0628,-3.0634,-3.0635,-3.0643,-3.065,-3.0653,-3.0622,-3.0622,-3.0622,-3.0622,0,0,-3.0268,-3.0323,-3.0328,-3.0347,-3.0388,-3.041,-3.0436,-3.047,-3.0485,-3.0514,-3.0536,-3.0576,-3.0582,-3.0602,-3.0618,-3.0634,-3.0647,-3.0637,-3.0639,-3.0638,-3.0678,-3.0673,-3.0676,-3.0655,-3.0656,-3.0656,-3.0675,0,-3.0284,-3.0332,-3.0356,-3.0393,-3.0419,-3.044,-3.0463,-3.049,-3.051,-3.0535,-3.0557,-3.0585,-3.059,-3.0603,-3.0619,-3.0642,-3.0656,-3.0641,-3.0676,-3.0677,-3.0666,-3.068,-3.0675,-3.0691,-3.0678,-3.0679,-3.0679,0,-3.0308,-3.0337,-3.0378,-3.0416,-3.0428,-3.0448,-3.0481,-3.0504,-3.0536,-3.0549,-3.0572,-3.0589,-3.0617,-3.0616,-3.0656,-3.0645,-3.0661,-3.0675,-3.0676,-3.0679,-3.0678,-3.0683,-3.0697,-3.0699,-3.0684,-3.0683,-3.0683,0,-3.0303,-3.0352,-3.0383,-3.0398,-3.0443,-3.0457,-3.0476,-3.0508,-3.0527,-3.0556,-3.0568,-3.06,-3.0617,-3.0641,-3.0665,-3.0663,-3.0702,-3.0703,-3.0714,-3.0713,-3.072,-3.0719,-3.0736,-3.0731,-3.0731,-3.0731,-3.0731,0,-3.0317,-3.0341,-3.0381,-3.0399,-3.0427,-3.0454,-3.048,-3.0501,-3.0529,-3.0552,-3.0572,-3.0593,-3.0624,-3.0649,-3.0668,-3.0698,-3.0705,-3.0717,-3.0721,-3.0715,-3.0713,-3.0725,-3.0724,-3.0732,-3.0732,-3.0732,-3.0732,0,-3.0315,-3.0343,-3.0377,-3.0418,-3.0428,-3.0447,-3.0481,-3.05,-3.0521,-3.055,-3.0559,-3.0592,-3.0622,-3.0649,-3.069,-3.0703,-3.0733,-3.0739,-3.0722,-3.0724,-3.0733,-3.0732,-3.0758,-3.0762,-3.0754,-3.0754,-3.0754,0,-3.0323,-3.0342,-3.0384,-3.0401,-3.042,-3.0447,-3.0467,-3.0495,-3.0514,-3.0552,-3.0566,-3.0598,-3.0625,-3.0673,-3.0701,-3.0732,-3.0738,-3.0745,-3.0743,-3.0736,-3.0738,-3.0736,-3.0738,-3.0745,-3.0745,-3.0745,-3.0745,0,-3.0333,-3.0345,-3.0373,-3.0405,-3.0428,-3.0455,-3.0482,-3.0495,-3.0528,-3.0549,-3.0581,-3.0602,-3.0643,-3.0675,-3.0709,-3.0729,-3.0742,-3.0746,-3.075,-3.0742,-3.0732,-3.0737,-3.0721,-3.0745,-3.0745,-3.0745,-3.0745,-3.0745,-3.0335,-3.0353,-3.0386,-3.0416,-3.044,-3.0465,-3.0485,-3.0509,-3.0536,-3.0572,-3.0586,-3.0619,-3.065,-3.0698,-3.0717,-3.0743,-3.0745,-3.0751,-3.0752,-3.0753,-3.0752,-3.0728,-3.0749,-3.0749,-3.0749,-3.075,-3.075,0,-3.0346,-3.0368,-3.0396,-3.0434,-3.0457,-3.0469,-3.05,-3.0518,-3.0547,-3.0575,-3.0602,-3.0638,-3.0669,-3.0699,-3.0732,-3.0746,-3.0753,-3.0754,-3.0753,-3.0757,-3.0748,-3.0741,-3.0748,-3.0748,-3.0748,-3.0748,-3.0748,-3.0748,-3.0354,-3.0385,-3.0402,-3.0444,-3.0466,-3.0498,-3.0515,-3.0538,-3.0561,-3.0601,-3.0627,-3.0647,-3.0676,-3.0711,-3.074,-3.0748,-3.0759,-3.0758,-3.0767,-3.0758,-3.0758,-3.0758,-3.0751,-3.076,-3.076,-3.0774,-3.0774,-3.0774]},{"header":{"parameterUnit":"m.s-1","parameterCategory":1,"la1":30.2991,"la2":30.254,"lo1":-89.0895,"lo2":-89.0444,"dy":0.0017,"dx":0.0017,"nx":28,"ny":28,"refTime":"2023-04-02T21:00:00:Z","depth":0,"parameterNumber":3,"parameterNumberName":"V-component_of_WINDS"},"data":[0,0,0,0,0,0,0,0,0,0,0,0,0,0,0,0,0,0,0,0,0,0,0,0,0,0,0,0,0,0,0,0,0,0,0,0,0,0,0,0,0,0,0,0,0,0,0,0,0,0,0,0,0,0,0,0,0,0,4.4484,4.4485,0,4.457,4.4571,4.4572,4.4555,4.4553,4.4552,4.455,4.4638,4.4641,4.4645,0,0,0,0,0,0,0,0,0,0,0,0,0,4.4307,4.431,4.4484,4.4485,4.4486,4.457,4.4571,4.4572,4.4555,4.4553,4.4551,4.4549,4.4636,4.4641,4.4645,0,0,0,0,0,0,0,0,0,0,0,0,0,4.4388,4.4312,4.4484,4.4488,4.4489,4.457,4.4571,4.4572,4.4555,4.4553,4.4551,4.4549,4.4635,4.464,4.4646,4.4728,0,0,4.4663,4.4666,0,0,0,0,0,0,0,0,4.4383,4.4394,4.4486,4.4488,4.4489,4.4549,4.4541,4.4625,4.4556,4.453,4.455,4.4547,4.461,4.4618,4.4639,4.4732,4.4736,4.4664,4.4667,4.467,4.4671,0,0,0,0,0,0,0,4.4377,4.439,4.4518,4.4487,4.4489,4.4486,4.4495,4.4557,4.4582,4.4532,4.4531,4.4542,4.461,4.4634,4.4641,4.4737,4.4664,4.4669,4.4672,4.4675,4.4906,4.4908,0,0,0,0,0,0,4.437,4.4386,4.4515,4.452,4.4429,4.4491,4.4501,4.4532,4.4582,4.4587,4.4544,4.4541,4.4625,4.4634,4.4644,4.4746,4.467,4.4675,4.4678,4.4903,4.4906,4.4909,0,0,0,0,0,0,4.4367,4.4382,4.4512,4.4453,4.4469,4.4496,4.4532,4.4535,4.4558,4.459,4.4595,4.4562,4.4623,4.4636,4.4708,4.4748,4.4678,4.4683,4.49,4.4904,4.4908,4.4948,0,0,0,0,0,0,4.4362,4.4381,4.4412,4.4454,4.4472,4.4574,4.4534,4.4539,4.4568,4.4565,4.4609,4.4614,4.4623,4.47,4.4714,4.4755,4.4687,4.4896,4.4902,4.4907,4.4943,4.4953,4.4962,0,0,0,0,0,4.4355,4.4419,4.4413,4.4429,4.4511,4.4576,4.4587,4.4596,4.4571,4.4603,4.4624,4.4612,4.4742,4.4707,4.4723,4.4766,4.4894,4.49,4.4906,4.4939,4.4951,4.4961,0,0,0,0,0,0,4.4379,4.4424,4.4419,4.4497,4.4533,4.4573,4.4613,4.4608,4.4651,4.4647,4.4656,4.4666,4.474,4.476,4.4721,4.485,4.4814,4.4824,4.4834,4.4846,4.4855,4.4849,4.4692,0,0,0,0,0,4.4394,4.4443,4.4479,4.4545,4.4564,4.4586,4.4614,4.4618,4.4656,4.4671,4.4697,4.4734,4.4784,4.4816,4.4862,4.4946,4.4957,4.4984,4.4993,4.5,4.5009,4.5058,4.5071,4.493,4.493,4.4929,0,0,4.4424,4.4455,4.4485,4.4551,4.4579,4.4631,4.4598,4.4653,4.4692,4.4679,4.475,4.4771,4.4813,4.4892,4.4928,4.4911,4.5051,4.5008,4.5014,4.5018,4.5066,4.5079,4.5091,4.4934,4.4933,4.4932,0,0,4.4506,4.4533,4.4593,4.4623,4.4667,4.4681,4.4696,4.4738,4.4751,4.4822,4.4815,4.4861,4.4945,4.4977,4.5003,4.5101,4.5093,4.5116,4.5164,4.5211,4.5223,4.5233,4.527,4.5283,4.5124,4.5124,4.5124,0,4.4539,4.4615,4.4624,4.4681,4.4711,4.4703,4.4765,4.4793,4.485,4.4872,4.4852,4.4959,4.4987,4.5075,4.5099,4.5121,4.5139,4.5111,4.522,4.523,4.524,4.5276,4.5289,4.5127,4.5127,4.5126,4.5126,0,4.4654,4.4708,4.4751,4.4807,4.4842,4.4901,4.492,4.4955,4.4956,4.4974,4.5048,4.5081,4.5136,4.5157,4.5159,4.5247,4.5235,4.5218,4.5182,4.5256,4.529,4.5303,4.5131,4.513,4.5129,4.5128,0,0,4.4752,4.4815,4.4831,4.4858,4.4907,4.4949,4.5009,4.5063,4.5094,4.5134,4.5186,4.5259,4.5244,4.5275,4.528,4.5322,4.54,4.5299,4.5301,4.5319,4.5503,4.5517,4.5532,4.5395,4.5398,4.54,4.55,0,4.4841,4.4946,4.4957,4.5051,4.5102,4.5097,4.5149,4.5186,4.5204,4.5251,4.5271,4.5324,4.5299,4.5318,4.5359,4.5382,4.5438,4.5375,4.5445,4.5447,4.5436,4.555,4.5564,4.5657,4.5513,4.5515,4.5517,0,4.4957,4.5003,4.5102,4.5148,4.517,4.5216,4.5269,4.5313,4.5355,4.5366,4.5402,4.5403,4.5466,4.5428,4.5516,4.5473,4.5503,4.5519,4.5523,4.553,4.5487,4.5562,4.5686,4.5701,4.5537,4.5536,4.5534,0,4.5022,4.5108,4.518,4.5203,4.5256,4.529,4.5314,4.5354,4.5387,4.5433,4.5455,4.5508,4.5537,4.5578,4.5594,4.5564,4.5683,4.5645,4.5695,4.5695,4.572,4.5719,4.5853,4.5737,4.5737,4.5736,4.5736,0,4.5121,4.5183,4.521,4.5254,4.5324,4.5337,4.5406,4.5428,4.5465,4.5514,4.5512,4.5559,4.5576,4.5626,4.5639,4.5712,4.5724,4.5736,4.5739,4.5737,4.5736,4.5757,4.5752,4.574,4.5739,4.5738,4.5738,0,4.5205,4.5226,4.5304,4.5349,4.5362,4.5412,4.5451,4.5495,4.5513,4.5577,4.5592,4.5621,4.5681,4.57,4.5771,4.578,4.5865,4.5862,4.5851,4.5852,4.5902,4.5898,4.6056,4.6078,4.5945,4.5947,4.5948,0,4.5267,4.5315,4.5366,4.54,4.5425,4.5479,4.5513,4.5528,4.5564,4.5618,4.5656,4.5715,4.5763,4.5858,4.5886,4.5941,4.594,4.5991,4.5948,4.5946,4.5943,4.5941,4.5947,4.6,4.6001,4.6002,4.6003,0,4.5377,4.5385,4.5435,4.5489,4.5531,4.5574,4.5616,4.5644,4.5665,4.5706,4.5767,4.5804,4.5878,4.5938,4.5995,4.602,4.6017,4.6017,4.6032,4.6031,4.6024,4.6031,4.5876,4.6013,4.6012,4.6011,4.6011,4.601,4.5453,4.5497,4.5541,4.5597,4.563,4.567,4.5715,4.574,4.5791,4.5852,4.5858,4.5925,4.5969,4.6045,4.6074,4.6127,4.6112,4.6133,4.6139,4.6144,4.6149,4.6015,4.6137,4.6136,4.6136,4.6136,4.6136,0,4.5565,4.5593,4.5645,4.5704,4.575,4.5742,4.5789,4.5827,4.5886,4.5927,4.5975,4.6047,4.6105,4.6139,4.6197,4.6234,4.6234,4.6249,4.6247,4.6254,4.6157,4.614,4.6248,4.6248,4.6248,4.6248,4.6248,4.6248,4.5628,4.5702,4.5716,4.5808,4.5836,4.5901,4.5929,4.5967,4.6,4.6081,4.6129,4.6151,4.619,4.6252,4.6306,4.6314,4.6337,4.6354,4.6362,4.6271,4.626,4.6249,4.6233,4.6358,4.6359,4.6454,4.6455,4.6455]}]]